DIRECTV 11

Last updated on Wed Sep 17 2025 00:02:46 GMT+0000 (Coordinated Universal Time)

1 32729U 08013A 25259.56405860 -.00000145 00000+0 00000+0 0 9991 2 32729 0.0226 338.5090 0000182 257.3560 223.7652 1.00272006 42856
UTC large
Height (km)
Speed (km/s)
/
Latitude / Longitude
Inclination (degrees)
Orbital Period (minutes)
Azimuth
Elevation
Range (km)
Doppler Factor

Next 0 passes for location: London (51.5072 / 0.1276)

Sorry there are no passes over London.